Regional Weather Roundup
Issued by NWS

Home | Current Version | Previous Version | Graphics & Text | Print | Product List | Glossary On
Versions: 1 2 3 4 5 6 7 8 9 10 11 12 13 14 15 16 17 18 19 20 21 22 23 24 25 26 27 28 29 30 31 32 33 34 35 36 37 38 39 40 41 42 43 44 45 46 47 48 49 50
000
ASUS43 KLMK 212010
RWRKY
KENTUCKY REGIONAL WEATHER ROUNDUP
NATIONAL WEATHER SERVICE LOUISVILLE KY
400 PM EDT THU AUG 21 2014

NOTE "FAIR" INDICATES FEW OR NO CLOUDS BELOW 12,000 FEET
WITH NO SIGNIFICANT WEATHER AND/OR OBSTRUCTIONS TO VISIBILITY.

KYZ001>023-026-027-061>063-070>075-212100-
WESTERN AND SOUTH CENTRAL KENTUCKY

CITY           SKY/WX    TMP DP  RH WIND       PRES   REMARKS
PADUCAH        MOSUNNY   92  72  51 SW12      30.01F HX  99
HENDERSON      SUNNY     91  72  52 SW14      30.00F HX  98
OWENSBORO      MOSUNNY   93  74  54 VRB5      30.03F HX 102
HOPKINSVILLE   MOSUNNY   92  71  50 SW8       30.05F HX  98
BOWLING GREEN  MOSUNNY   91  71  51 VRB3      30.06F HX  97
GLASGOW        MOSUNNY   90  70  52 W7        30.08F HX  95
$$

KYZ024-025-028>034-038-045-046-053-212100-
NORTH CENTRAL KENTUCKY

CITY           SKY/WX    TMP DP  RH WIND       PRES   REMARKS
LOUISVILLE/SDF PTSUNNY   86  75  69 SW10      30.03F HX  95
LOUISVILLE/LOU MOSUNNY   87  74  64 SW7       30.04F HX  95
FORT KNOX      PTSUNNY   89  74  61 SW9       30.05F HX  97
$$

KYZ035>037-039>044-047>052-055>060-089>105-212100-
NORTHEAST KENTUCKY

CITY           SKY/WX    TMP DP  RH WIND       PRES   REMARKS
LEXINGTON      PTSUNNY   83  74  74 SW6       30.07F
COVINGTON      CLOUDY    81  72  74 W8        30.05F
FRANKFORT      PTSUNNY   84  73  69 W9        30.05F HX  90
$$

KYZ054-064>069-076>088-106>120-212100-
SOUTHEAST KENTUCKY

CITY           SKY/WX    TMP DP  RH WIND       PRES   REMARKS
JACKSON        PTSUNNY   77  72  84 W6        30.10F
LONDON         SUNNY     88  70  55 W14       30.11F HX  93
SOMERSET       HVY RAIN  82  70  65 W3        30.11F
MIDDLESBORO    MOSUNNY   85  74  68 S8        30.12F HX  92
MONTICELLO     PTCLDY    89  74  61 W7        30.12F HX  97
$$



USA.gov is the U.S. government's official web portal to all federal, state and local government web resources and services.